Weather History for Wooster, OH

Change the Weather History Date:

Tuesday, October 2, 2012

  Actual Average Record
Temperature  
Mean Temperature 63 °F -  
Max Temperature 73 °F 65 °F 82 °F (2002)
Min Temperature 53 °F 41 °F 28 °F (2003)
Degree Days  
Heating Degree Days 2    
Growing Degree Days 13 (Base 50)    
Moisture  
Dew Point 59 °F    
Average Humidity 89    
Maximum Humidity 100    
Minimum Humidity 73    
Precipitation  
Precipitation 0.13 in - - ()
Sea Level Pressure  
Sea Level Pressure 29.83 in    
Wind  
Wind Speed 4 mph (East)    
Max Wind Speed 8 mph    
Max Gust Speed -    
Visibility 7 miles    
Events Rain    
Averages and records for this station are not official NWS values.
T = Trace of Precipitation, MM = Missing Value Source: NWS Daily Summary

Daily Weather History Graph

Daily Weather History Graph

Search for Another Location

Airport:

Trip Planner

Search our weather history database for the weather conditions in past years. The results will help you decide how hot, cold, wet, or windy it might be!

Date:

Astronomy

Oct. 02, 2012 Rise Set
Actual Time 7:25 AM EDT 7:07 PM EDT
Civil Twilight 6:58 AM EDT 7:34 PM EDT
Nautical Twilight 6:26 AM EDT 8:06 PM EDT
Astronomical Twilight 5:54 AM EDT 8:38 PM EDT
Moon 8:17 PM EDT (10/2) 9:52 AM EDT (10/2)
Length of Visible Light 12h 36m
Length of Day
11h 41m
Waning Gibbous, 94% of the Moon is Illuminated
Oct 2
Waning Gibbous
Oct 8
Last Quarter
Oct 15
New
Oct 21
First Quarter
Oct 29
Full

Hourly Weather History & Observations

Time (EDT) Temp. Dew Point Humidity Pressure Visibility Wind Dir Wind Speed Gust Speed Precip Events Conditions
12:12 AM 53.6 °F 51.8 °F 94% 29.82 in 10.0 mi ENE 3.5 mph - 0.00 in   Overcast
12:40 AM 53.6 °F 51.8 °F 94% 29.82 in 10.0 mi ENE 4.6 mph - 0.00 in   Overcast
12:56 AM 54.0 °F 51.1 °F 90% 29.81 in 9.0 mi ENE 5.8 mph - 0.00 in   Overcast
1:56 AM 54.0 °F 52.0 °F 93% 29.80 in 9.0 mi ENE 5.8 mph - 0.00 in Rain Light Rain
2:56 AM 54.0 °F 53.1 °F 97% 29.79 in 6.0 mi NE 8.1 mph - 0.03 in   Overcast
3:56 AM 54.0 °F 53.1 °F 97% 29.78 in 4.0 mi ENE 4.6 mph - 0.02 in Rain Light Rain
4:23 AM 53.6 °F 53.6 °F 100% 29.79 in 5.0 mi ENE 5.8 mph - 0.02 in   Overcast
4:56 AM 54.0 °F 53.1 °F 97% 29.79 in 4.0 mi ENE 5.8 mph - 0.03 in   Overcast
5:56 AM 55.0 °F 54.0 °F 96% 29.78 in 5.0 mi East 4.6 mph - 0.01 in   Overcast
6:56 AM 55.0 °F 54.0 °F 96% 29.80 in 4.0 mi Calm Calm - 0.02 in   Overcast
7:10 AM 55.4 °F 53.6 °F 94% 29.81 in 4.0 mi ESE 3.5 mph - 0.01 in   Overcast
7:56 AM 55.9 °F 54.0 °F 93% 29.82 in 2.5 mi East 3.5 mph - 0.01 in   Overcast
8:20 AM 55.4 °F 55.4 °F 100% 29.83 in 3.0 mi East 3.5 mph - N/A   Overcast
8:56 AM 55.9 °F 55.0 °F 97% 29.83 in 3.0 mi East 3.5 mph - 0.00 in   Overcast
9:23 AM 57.2 °F 55.4 °F 94% 29.84 in 3.0 mi East 3.5 mph - N/A   Overcast
9:56 AM 59.0 °F 57.0 °F 93% 29.84 in 4.0 mi ESE 3.5 mph - N/A   Overcast
10:38 AM 60.8 °F 57.2 °F 88% 29.84 in 4.0 mi ESE 4.6 mph - N/A   Overcast
10:49 AM 60.8 °F 59.0 °F 94% 29.84 in 4.0 mi East 3.5 mph - N/A   Overcast
10:56 AM 63.0 °F 59.0 °F 87% 29.83 in 4.0 mi ESE 4.6 mph - N/A   Overcast
11:13 AM 62.6 °F 59.0 °F 88% 29.84 in 5.0 mi Calm Calm - N/A   Overcast
11:56 AM 64.0 °F 60.1 °F 87% 29.84 in 7.0 mi East 4.6 mph - N/A   Overcast
12:56 PM 68.0 °F 62.1 °F 81% 29.83 in 10.0 mi SE 4.6 mph - N/A   Overcast
1:03 PM 69.8 °F 62.6 °F 78% 29.84 in 10.0 mi SSE 3.5 mph - N/A   Overcast
1:49 PM 71.6 °F 62.6 °F 73% 29.82 in 10.0 mi ESE 5.8 mph - N/A   Overcast
1:56 PM 71.1 °F 63.0 °F 75% 29.81 in 10.0 mi Variable 3.5 mph - N/A   Mostly Cloudy
2:14 PM 71.6 °F 62.6 °F 73% 29.81 in 10.0 mi East 5.8 mph - N/A   Mostly Cloudy
2:21 PM 71.6 °F 62.6 °F 73% 29.81 in 10.0 mi East 4.6 mph - N/A   Overcast
2:56 PM 73.0 °F 64.0 °F 73% 29.80 in 10.0 mi SE 5.8 mph - N/A   Mostly Cloudy
4:56 PM 72.0 °F 64.0 °F 76% 29.81 in 10.0 mi ENE 6.9 mph - N/A   Overcast
5:56 PM 72.0 °F 64.0 °F 76% 29.81 in 10.0 mi East 8.1 mph - N/A   Overcast
6:56 PM 70.0 °F 64.9 °F 84% 29.83 in 10.0 mi East 5.8 mph - N/A   Overcast
7:23 PM 68.0 °F 64.4 °F 88% 29.83 in 10.0 mi East 6.9 mph - N/A   Scattered Clouds
7:48 PM 68.0 °F 64.4 °F 88% 29.84 in 10.0 mi East 5.8 mph - N/A   Mostly Cloudy
7:56 PM 68.0 °F 64.9 °F 90% 29.83 in 10.0 mi East 4.6 mph - N/A   Overcast
8:31 PM 68.0 °F 64.4 °F 88% 29.85 in 10.0 mi ENE 5.8 mph - N/A   Overcast
10:21 PM 66.2 °F 64.4 °F 94% 29.88 in 8.0 mi Calm Calm - N/A   Overcast
10:52 PM 66.2 °F 64.4 °F 94% 29.88 in 6.0 mi ENE 4.6 mph - 0.00 in Rain Light Rain
10:56 PM 66.0 °F 64.9 °F 96% 29.87 in 5.0 mi Calm Calm - 0.00 in Rain Light Rain
11:30 PM 66.2 °F 64.4 °F 94% 29.89 in 6.0 mi SSE 4.6 mph - 0.01 in   Overcast
11:56 PM 64.9 °F 63.0 °F 93% 29.88 in 10.0 mi Calm Calm - 0.01 in   Overcast